Погода в Новоскаковском

Россия / Калужская область     54°36′14″N   36°00′37″E
темп.,
°C
ветер,
м/с
пор.,
м/с
влажн.,
%
обл.,
%
осадки,
мм/ч
давл.,
гПа
погр.,
м
4 августа, ср
ср400:00+16зюз35713 0.0 1014125
03:00+12з35835 0.0 101569
06:00+14зюз257499 0.0 1015146
09:00+17з2369100 0.0 1016311
12:00+21зюз345882 0.8 10161219
15:00+22зсз465139 1.7 10161523
18:00+21зсз45567 0.0 1016946
21:00+15зюз228030 0.6 101715
5 августа, чт
чт500:00+14юз12854 0.0 101711
03:00+12ю2287100 0.0 101812
06:00+13ю238671 0.0 101857
09:00+18ю346899 0.0 1017298
12:00+22ю3547100 0.0 10161434
15:00+16в2386100 0.8 101681
18:00+16ююв2494100 1.4 1015155
21:00+15юв3798100 7.4 1015289
6 августа, пт
пт600:00+15юв3798100 6.8 1014259
03:00+15вюв259799 7.1 1013196
06:00+15вюв239688 0.0 1012100
09:00+16ююв2698100 3.0 1012272
12:00+19юв5785100 3.2 1011565
15:00+22ююв577099 3.4 1010696
18:00+20с4585100 1.4 1010120
21:00+17всв5119298 2.4 1010278
7 августа, сб
сб700:00+17всв6158983 0.4 1010385
03:00+16вюв41184100 0.4 1010305
06:00+15вюв2693100 0.0 1010168
09:00+19юв349055 2.8 1010242
12:00+26юв456389 1.3 1009673
15:00+29ю464671 1.3 10091311
18:00+19зюз368899 0.4 1010100
21:00+20вюв2383100 0.5 101049
8 августа, вс
вс800:00+18вюв3483100 0.3 101058
03:00+18вюв3683100 0.4 1010113
06:00+17юз2384100 0.1 100959
09:00+18юз3690100 0.5 1011175
12:00+18ююв0194100 1.4 101241
15:00+18ююв2296100 4.9 1013152
18:00+18вюв1196100 4.1 101374
21:00+17сз2498100 5.4 1014144